Find Qianfan Jigui 01-06

NORAD ID: 60384 Int'l Des: 2024-140 Owner: YUANX Country: CN Constellation: spacesail operational
LEOCIRCULARPOLAR

リアルタイム位置

3D地球を読み込み中...

Qianfan Jigui 01-06について

説明を読み込み中...

次回通過

Passes for default location (London). Set your location on the main map for personalized predictions.

高度履歴

Loading altitude history...

軌道要素

1 60384U 24140F 26139.82636816 .00000063 00000-0 78379-4 0 9990
2 60384 88.9713 282.6262 0015161 99.8483 260.4381 13.51008206 88840
Epoch: May 19, 2026 • Age: 6 hours

現在のステータス

高度 1067.4 km
速度 7.33 km/s
衛星直下点 53.63°N, 163.35°W
打ち上げ日 Aug 6, 2024
運用期間 1.7 years
タイプ internet

技術仕様

分類 Payload
質量 267.00 kg
乾燥質量 267.00 kg
総質量 267.00 kg
長さ 0.30 m
直径 3.00 m
スパン 10.00 m
形状 Box+pan
製造者 SECM
バスタイプ Qianfan
フェーズステータス In Orbit
所有者/国 YUANX/CN

Most Searched